Cloud_Cover
100 100 100 100 100 100 100 100 100 100 100 100 100 100 100 100 100 100 100 100 100 100 100 100 100 100 100 100 100 100 100 100 100 100 100 100 100 100 100 100 100 100 100 100 100 100 100 100 98 23 83 94 2 5
100 100 100 100 100 100 100 100 100 100 100 100 100 100 100 100 100 100 100 100 100 100 100 100 100 100 100 100 100 100 100 100 100 100 100 100 100 100 100 100 100 100 100 100 100 100 100 100 88 57 97 5 5 4
100 100 100 100 100 100 100 100 100 100 100 100 100 100 100 100 100 100 100 100 100 100 100 100 100 100 100 100 100 100 100 100 100 100 100 100 100 100 100 100 100 100 100 100 100 100 100 100 92 92 23 5 5 5
100 100 100 100 100 100 100 100 100 100 100 100 100 100 100 100 100 100 100 100 100 100 100 100 100 100 100 100 100 100 100 100 100 100 100 100 100 100 100 100 100 100 100 100 100 100 100 100 100 100 26 5 5 5
100 100 100 100 100 100 100 100 100 100 100 100 100 100 100 100 100 100 100 100 100 100 100 100 100 100 100 100 100 100 100 100 100 100 100 100 100 100 100 100 100 100 100 100 100 100 100 100 100 100 5 5 5 37
100 100 100 100 100 100 100 100 100 100 100 100 100 100 100 100 100 100 100 100 100 100 100 100 100 100 100 100 100 100 85 88 100 100 100 100 100 100 100 100 100 100 100 100 100 100 100 100 100 99 16 5 5 39
100 100 100 100 100 100 100 100 100 100 100 100 100 100 100 100 100 100 82 88 100 100 100 96 97 98 89 85 93 100 100 100 100 100 100 100 96 9 66 100 100 100 100 100 100 100 100 100 100 92 5 5 12 5
100 100 100 100 100 100 100 100 100 100 100 100 100 100 100 100 100 100 97 100 100 99 83 72 92 65 16 97 100 100 100 99 100 100 100 62 54 92 100 100 100 100 100 100 100 100 100 100 99 6 5 39 99 71
98 100 100 100 100 100 100 100 100 100 100 100 100 100 100 100 100 100 100 97 98 100 100 98 86 100 100 82 74 87 75 85 62 96 36 84 100 100 100 100 100 100 100 100 100 100 100 100 6 5 49 77 100 99
100 100 100 100 100 100 100 100 100 100 100 100 100 100 100 100 100 100 100 100 100 100 100 100 81 98 62 57 67 73 72 88 96 90 96 100 100 100 100 95 100 100 100 100 100 44 51 54 50 66 99 100 100 100
100 100 97 100 100 100 100 100 100 100 100 100 100 100 100 100 100 100 100 100 100 88 34 41 12 86 28 90 100 65 96 100 90 63 97 100 100 100 99 100 100 100 100 100 59 62 86 98 100 98 76 100 100 100
68 95 100 100 100 100 100 100 100 100 100 100 99 92 100 100 100 100 87 33 9 65 48 48 72 96 84 98 82 92 100 97 79 83 96 98 100 100 100 100 100 100 100 100 94 17 19 77 81 100 100 100 100 100
100 100 100 100 100 100 100 100 100 100 100 100 100 100 100 87 100 60 6 8 46 52 81 65 91 86 81 97 96 100 99 78 52 98 100 100 100 100 100 100 100 100 100 100 18 5 6 13 85 93 99 86 100 100
100 100 100 100 100 100 100 100 100 100 100 100 100 100 100 57 22 5 8 24 91 90 62 84 77 60 91 100 100 100 67 74 99 100 100 100 100 100 100 100 100 100 99 42 5 30 38 75 84 88 79 96 100 94
100 100 100 100 100 100 100 100 100 100 100 100 100 100 75 68 93 99 94 97 96 100 91 80 88 98 100 100 99 79 96 92 100 100 100 100 100 100 100 94 90 81 84 85 53 84 74 72 76 75 55 80 97 100
100 100 100 100 100 100 100 100 100 100 100 100 100 99 97 100 100 100 100 100 100 100 100 100 100 100 100 100 100 100 100 100 100 100 100 100 99 95 99 89 83 93 100 95 62 79 66 79 77 72 95 98 90 99
100 100 100 100 100 100 100 100 100 100 100 100 100 100 100 100 99 100 100 100 100 100 100 100 100 100 100 100 100 100 100 100 100 100 100 100 94 100 95 91 82 78 69 57 83 91 68 76 81 89 78 98 99 75
100 100 100 100 100 97 100 100 100 100 100 100 100 100 100 100 100 95 100 100 100 100 100 100 100 100 100 100 100 100 100 100 100 94 62 57 96 99 91 92 79 75 65 55 85 96 85 100 100 100 98 100 73 98
100 100 100 100 93 100 99 86 100 100 100 100 100 100 100 100 100 100 100 100 100 100 100 100 100 100 100 100 100 100 100 100 90 76 70 15 84 78 75 80 89 93 85 80 89 91 100 100 100 100 100 100 100 100
100 100 91 100 100 92 98 98 90 100 100 100 100 100 100 100 100 100 100 100 100 100 100 100 100 100 100 100 96 83 98 100 100 89 59 83 84 85 83 88 96 99 96 98 94 99 100 100 100 100 96 100 100 100
100 100 100 100 100 100 100 100 100 100 100 100 100 100 100 100 100 100 100 100 100 100 100 100 99 96 100 99 100 100 95 100 100 100 97 84 75 88 100 100 100 93 90 99 100 100 100 100 100 100 100 100 100 100
100 100 100 100 100 100 100 100 100 100 100 100 100 100 100 100 100 100 100 98 100 99 99 92 100 100 84 71 85 100 98 98 94 90 96 96 99 100 100 100 100 98 100 100 100 100 100 100 100 100 100 100 100 100
100 100 100 100 100 100 100 100 100 100 100 100 100 100 100 100 99 88 74 99 96 100 96 93 99 100 89 89 84 61 77 83 87 92 90 80 94 98 100 100 100 100 100 100 100 100 100 100 100 100 100 100 100 100
100 100 100 100 100 100 100 100 100 93 73 63 52 78 100 80 76 75 76 73 95 96 79 85 90 77 70 62 73 82 86 92 97 88 70 79 98 100 100 100 100 100 100 100 100 100 100 100 100 100 100 100 100 100
100 100 100 100 100 100 100 100 98 68 71 89 58 79 66 91 90 89 55 6 84 81 70 70 76 62 70 74 85 91 91 88 86 62 60 77 95 94 98 100 100 100 100 100 100 100 100 100 100 100 100 100 100 100
100 100 100 100 100 100 100 99 98 68 67 49 81 100 83 59 12 5 5 5 30 53 54 86 87 77 76 78 79 76 73 67 69 64 72 89 100 98 100 100 100 100 100 100 100 100 100 100 100 100 100 100 100 100
100 100 100 100 100 100 100 100 99 70 59 20 88 100 52 5 5 5 5 30 19 38 61 77 84 83 84 82 92 74 74 70 69 71 95 100 100 100 100 100 100 100 100 100 100 100 100 100 100 100 100 100 100 100
83 100 100 100 100 100 100 92 36 9 51 5 27 14 5 2 3 5 7 64 53 84 84 69 78 87 87 80 80 80 99 100 100 96 99 100 100 100 100 100 100 100 100 100 100 100 100 100 100 100 100 100 100 100
100 100 100 100 99 80 43 14 5 9 8 5 5 5 26 5 39 53 93 100 100 75 29 54 81 65 73 79 79 72 97 100 100 100 100 100 100 100 100 100 100 100 100 100 100 100 100 100 100 100 100 100 100 100
100 93 91 65 10 50 98 95 100 100 97 26 16 53 36 71 95 99 81 75 40 67 85 81 79 77 73 74 73 85 82 95 100 100 100 99 100 100 100 100 100 100 100 100 100 100 100 100 100 100 100 100 100 100
100 100 100 85 86 99 100 100 100 100 88 74 69 14 11 60 96 96 79 88 87 82 75 86 79 75 71 81 84 89 84 82 84 98 100 100 100 100 100 100 100 100 100 100 100 100 100 100 100 100 100 100 100 100
100 98 88 85 100 96 98 94 99 94 97 48 67 73 48 50 44 98 89 83 84 86 97 95 90 85 84 79 85 95 99 100 98 100 100 100 100 100 100 100 100 100 100 100 100 100 100 100 100 100 100 100 100 100
100 100 70 83 90 86 85 31 76 46 35 100 93 99 98 57 23 90 91 88 84 84 80 79 76 75 77 80 79 81 100 100 100 100 100 100 100 100 100 100 100 100 100 100 100 100 100 100 100 100 100 96 67 50